Charlotte, NC

6:17 AM EST on February 10, 2016 (GMT -0500)
Charlotte-Douglas International

Weather History for KCLT - January, 2003

Change the Weather History Date:

Sunday, January 12, 2003

  Actual Average Record
Temperature  
Mean Temperature 31 °F 40 °F  
Max Temperature 37 °F 50 °F 75 °F (1890)
Min Temperature 25 °F 29 °F -1 °F (1886)
Degree Days  
Heating Degree Days 34 25  
Month to date heating degree days 300  
Since 1 July heating degree days 1637  
Cooling Degree Days 0 0  
Month to date cooling degree days 0  
Year to date cooling degree days 0  
Moisture  
Dew Point 2 °F    
Average Humidity 30    
Maximum Humidity 43    
Minimum Humidity 20    
Precipitation  
Precipitation 0.00 in 0.11 in 2.22 in (1879)
Month to date precipitation 1.35  
Year to date precipitation 1.35  
Snow  
Snow 0.00 in 0.10 in 2.50 in (1893)
Month to date snowfall 0.7  
Since 1 July snowfall 1.1  
Snow Depth -    
Sea Level Pressure  
Sea Level Pressure 30.36 in    
Wind  
Wind Speed 7 mph (North)    
Max Wind Speed 12 mph    
Max Gust Speed 20 mph    
Visibility 10 miles    
Events      
T = Trace of Precipitation, MM = Missing Value Source: NWS Daily Summary

Daily Weather History Graph

Daily Weather History Graph

Search for Another Location

Airport or City:

Trip Planner

Search our weather history database for the weather conditions in past years. The results will help you decide how hot, cold, wet, or windy it might be!

Date:

Astronomy

Jan. 12, 2003 Rise Set
Actual Time 7:32 AM EST 5:31 PM EST
Civil Twilight 7:04 AM EST 5:59 PM EST
Nautical Twilight 6:33 AM EST 6:30 PM EST
Astronomical Twilight 6:02 AM EST 7:01 PM EST
Moon 1:10 PM EST (1/12) 2:09 AM EST (1/12)
Length of Visible Light 10h 54m
Length of Day
9h 59m
Waxing Gibbous, 70% of the Moon is Illuminated
Jan 12
Waxing Gibbous
Jan 18
Full
Jan 25
Last Quarter
Feb 1
New
Feb 9
First Quarter

Hourly Weather History & Observations

Time (EST) Temp. Windchill Dew Point Humidity Pressure Visibility Wind Dir Wind Speed Gust Speed Precip Events Conditions
12:51 AM 30.0 °F 25.2 °F 8.1 °F 40% 30.24 in 10.0 mi NW 4.6 mph - N/A   Mostly Cloudy
1:51 AM 30.0 °F 21.7 °F 3.9 °F 33% 30.25 in 10.0 mi North 9.2 mph - N/A   Mostly Cloudy
2:51 AM 30.0 °F 21.1 °F 1.0 °F 29% 30.27 in 10.0 mi NNW 10.4 mph - N/A   Partly Cloudy
3:51 AM 28.0 °F 20.0 °F 1.9 °F 33% 30.30 in 10.0 mi NNW 8.1 mph - N/A   Clear
4:51 AM 28.0 °F 19.3 °F 1.0 °F 31% 30.31 in 10.0 mi North 9.2 mph - N/A   Clear
5:51 AM 27.0 °F 16.7 °F 1.0 °F 33% 30.35 in 10.0 mi North 11.5 mph 17.3 mph N/A   Clear
6:51 AM 26.1 °F 16.2 °F 1.0 °F 34% 30.38 in 10.0 mi North 10.4 mph 19.6 mph N/A   Scattered Clouds
7:51 AM 25.0 °F 14.2 °F 1.0 °F 36% 30.39 in 10.0 mi NNW 11.5 mph - N/A   Mostly Cloudy
8:51 AM 27.0 °F 18.0 °F 1.0 °F 33% 30.42 in 10.0 mi NNW 9.2 mph - N/A   Mostly Cloudy
9:51 AM 30.0 °F 21.1 °F -0.0 °F 28% 30.44 in 10.0 mi North 10.4 mph - N/A   Overcast
10:51 AM 32.0 °F 24.2 °F 1.0 °F 27% 30.45 in 10.0 mi NNE 9.2 mph - N/A   Mostly Cloudy
11:51 AM 33.1 °F 26.1 °F 1.0 °F 26% 30.42 in 10.0 mi North 8.1 mph - N/A   Mostly Cloudy
12:51 PM 34.0 °F 28.0 °F -0.9 °F 23% 30.39 in 10.0 mi North 6.9 mph - N/A   Overcast
1:51 PM 35.1 °F 31.0 °F -0.9 °F 22% 30.36 in 10.0 mi Variable 4.6 mph - N/A   Overcast
2:51 PM 37.9 °F 32.1 °F -0.0 °F 20% 30.35 in 10.0 mi NE 8.1 mph - N/A   Mostly Cloudy
3:51 PM 37.0 °F - -0.9 °F 20% 30.35 in 10.0 mi Calm Calm - N/A   Overcast
4:51 PM 36.0 °F 33.3 °F 1.9 °F 24% 30.36 in 10.0 mi North 3.5 mph - N/A   Overcast
5:51 PM 32.0 °F 28.7 °F 3.9 °F 31% 30.37 in 10.0 mi NNE 3.5 mph - N/A   Overcast
6:51 PM 33.1 °F - 3.0 °F 28% 30.37 in 10.0 mi Calm Calm - N/A   Overcast
7:51 PM 30.9 °F - 3.0 °F 31% 30.36 in 10.0 mi Calm Calm - N/A   Overcast
8:51 PM 33.1 °F - 3.0 °F 28% 30.38 in 10.0 mi Calm Calm - N/A   Overcast
9:51 PM 30.9 °F 27.5 °F 3.9 °F 32% 30.37 in 10.0 mi South 3.5 mph - N/A   Overcast
10:51 PM 30.0 °F - 5.0 °F 35% 30.36 in 10.0 mi Calm Calm - N/A   Overcast
11:51 PM 28.9 °F 25.2 °F 9.0 °F 43% 30.34 in 10.0 mi South 3.5 mph - N/A   Overcast